| time (UTC) | temp F | wind direction | speed MPH | gust MPH | rain 1hr in | rain 24hr in | rain mn in | humidity % | barometer mb |
| 20260831133101 | 0 | 0.0 | 0.0 | 0.00 | 0.00 | 0.00 | 1013.0 | ||
| 20260831131600 | 0 | 0.0 | 0.0 | 0.00 | 0.00 | 0.00 | 1013.0 | ||
| 20260831130059 | 46 | 288 | 0.0 | 0.0 | 0.00 | 0.00 | 0.00 | 74 | 1013.0 |
| 20260831124557 | 46 | 285 | 0.0 | 0.0 | 0.00 | 0.00 | 0.00 | 73 | 1013.1 |
| 20260831123050 | 48 | 285 | 2.0 | 3.0 | 0.00 | 0.00 | 0.00 | 73 | 1013.1 |
| 20260831121548 | 48 | 288 | 2.0 | 2.0 | 0.00 | 0.00 | 0.00 | 73 | 1013.0 |
| 20260831120121 | 49 | 293 | 0.0 | 1.0 | 0.00 | 0.00 | 0.00 | 72 | 1013.0 |
| 20260831114541 | 49 | 293 | 1.0 | 5.0 | 0.00 | 0.00 | 0.00 | 70 | 1012.9 |
| 20260831113039 | 50 | 291 | 2.0 | 5.0 | 0.00 | 0.00 | 0.00 | 69 | 1013.0 |
| 20260831111547 | 49 | 271 | 0.0 | 0.0 | 0.00 | 0.00 | 0.00 | 72 | 1013.0 |
| 20260831110037 | 49 | 271 | 0.0 | 0.0 | 0.00 | 0.00 | 0.00 | 71 | 1013.1 |
| 20260831104539 | 50 | 285 | 2.0 | 3.0 | 0.00 | 0.00 | 0.00 | 71 | 1013.1 |
| 20260831103037 | 50 | 280 | 1.0 | 2.0 | 0.00 | 0.00 | 0.00 | 70 | 1013.1 |
| 20260831101535 | 50 | 289 | 1.0 | 3.0 | 0.00 | 0.00 | 0.00 | 70 | 1013.1 |
| 20260831100028 | 51 | 285 | 2.0 | 4.0 | 0.00 | 0.00 | 0.00 | 68 | 1013.2 |
| 20260831094526 | 52 | 279 | 2.0 | 4.0 | 0.00 | 0.00 | 0.00 | 67 | 1013.2 |
| 20260831093024 | 52 | 292 | 2.0 | 4.0 | 0.00 | 0.00 | 0.00 | 67 | 1013.4 |
| 20260831091526 | 51 | 286 | 1.0 | 2.0 | 0.00 | 0.00 | 0.00 | 68 | 1013.6 |
| 20260831090020 | 51 | 281 | 1.0 | 2.0 | 0.00 | 0.00 | 0.00 | 67 | 1013.6 |
| 20260831084516 | 52 | 284 | 0.0 | 3.0 | 0.00 | 0.00 | 0.00 | 65 | 1013.7 |
| 20260831083015 | 54 | 296 | 1.0 | 5.0 | 0.00 | 0.00 | 0.00 | 63 | 1013.8 |
| 20260831081530 | 54 | 284 | 2.0 | 3.0 | 0.00 | 0.00 | 0.00 | 62 | 1014.0 |
| 20260831080012 | 53 | 285 | 2.0 | 3.0 | 0.00 | 0.00 | 0.00 | 63 | 1014.0 |
| 20260831074516 | 53 | 272 | 2.0 | 4.0 | 0.00 | 0.00 | 0.00 | 63 | 1014.0 |
| 20260831073010 | 53 | 285 | 0.0 | 2.0 | 0.00 | 0.00 | 0.00 | 64 | 1014.0 |
| 20260831071506 | 54 | 278 | 0.0 | 0.0 | 0.00 | 0.00 | 0.00 | 62 | 1014.1 |
| 20260831070007 | 55 | 279 | 0.0 | 2.0 | 0.00 | 0.00 | 0.00 | 61 | 1014.2 |
| 20260831064503 | 55 | 283 | 2.0 | 3.0 | 0.00 | 0.00 | 0.00 | 60 | 1014.1 |
| 20260831063003 | 55 | 289 | 1.0 | 2.0 | 0.00 | 0.00 | 0.00 | 59 | 1014.3 |
| 20260831061502 | 55 | 288 | 2.0 | 3.0 | 0.00 | 0.00 | 0.00 | 57 | 1014.3 |
| 20260831060001 | 55 | 299 | 0.0 | 0.0 | 0.00 | 0.00 | 0.00 | 56 | 1014.2 |
| 20260831054604 | 56 | 284 | 0.0 | 2.0 | 0.00 | 0.00 | 0.00 | 53 | 1014.3 |
| 20260831053103 | 55 | 302 | 0.0 | 0.0 | 0.00 | 0.00 | 0.00 | 53 | 1014.4 |
| 20260831051620 | 57 | 302 | 0.0 | 2.0 | 0.00 | 0.00 | 0.00 | 51 | 1014.4 |
| 20260831050100 | 59 | 286 | 2.0 | 2.0 | 0.00 | 0.00 | 0.00 | 49 | 1014.4 |
| 20260831044559 | 60 | 266 | 1.0 | 4.0 | 0.00 | 0.00 | 0.00 | 48 | 1014.5 |
| 20260831043058 | 59 | 283 | 0.0 | 0.0 | 0.00 | 0.00 | 0.00 | 48 | 1014.4 |
| 20260831041557 | 60 | 258 | 1.0 | 3.0 | 0.00 | 0.00 | 0.00 | 46 | 1014.4 |
| 20260831040057 | 62 | 261 | 0.0 | 1.0 | 0.00 | 0.00 | 0.00 | 43 | 1014.2 |
| 20260831034557 | 63 | 253 | 0.0 | 2.0 | 0.00 | 0.00 | 0.00 | 43 | 1014.1 |
| 20260831033102 | 65 | 330 | 0.0 | 4.0 | 0.00 | 0.00 | 0.00 | 40 | 1014.0 |
| 20260831031555 | 66 | 358 | 2.0 | 3.0 | 0.00 | 0.00 | 0.00 | 40 | 1013.9 |
| 20260831030054 | 66 | 44 | 0.0 | 3.0 | 0.00 | 0.00 | 0.00 | 39 | 1013.8 |
| 20260831024605 | 68 | 12 | 3.0 | 4.0 | 0.00 | 0.00 | 0.00 | 37 | 1013.6 |
| 20260831023053 | 70 | 37 | 3.0 | 8.0 | 0.00 | 0.00 | 0.00 | 35 | 1013.5 |
| 20260831021558 | 72 | 30 | 5.0 | 8.0 | 0.00 | 0.00 | 0.00 | 33 | 1013.5 |
| 20260831020054 | 74 | 52 | 7.0 | 10.0 | 0.00 | 0.00 | 0.00 | 31 | 1013.7 |
| 20260831014551 | 75 | 41 | 7.0 | 12.0 | 0.00 | 0.00 | 0.00 | 30 | 1013.6 |
| 20260831013051 | 75 | 55 | 7.0 | 13.0 | 0.00 | 0.00 | 0.00 | 29 | 1013.6 |
| 20260831011551 | 76 | 77 | 5.0 | 10.0 | 0.00 | 0.00 | 0.00 | 27 | 1013.6 |
| 20260831010121 | 76 | 72 | 5.0 | 10.0 | 0.00 | 0.00 | 0.00 | 27 | 1013.6 |
| 20260831004550 | 77 | 58 | 5.0 | 14.0 | 0.00 | 0.00 | 0.00 | 27 | 1013.8 |
| 20260831003047 | 77 | 32 | 9.0 | 13.0 | 0.00 | 0.00 | 0.00 | 26 | 1013.8 |
| 20260831001555 | 78 | 56 | 5.0 | 12.0 | 0.00 | 0.00 | 0.00 | 24 | 1013.7 |
| 20260831000045 | 78 | 65 | 5.0 | 11.0 | 0.00 | 0.00 | 0.00 | 23 | 1013.9 |
| 20260830234543 | 78 | 27 | 3.0 | 8.0 | 0.00 | 0.00 | 0.00 | 23 | 1014.1 |
| 20260830233042 | 78 | 74 | 5.0 | 12.0 | 0.00 | 0.00 | 0.00 | 23 | 1014.1 |
| 20260830231540 | 77 | 62 | 6.0 | 13.0 | 0.00 | 0.00 | 0.00 | 24 | 1014.2 |
| 20260830230048 | 78 | 30 | 7.0 | 10.0 | 0.00 | 0.00 | 0.00 | 23 | 1014.3 |
| 20260830224546 | 78 | 251 | 2.0 | 8.0 | 0.00 | 0.00 | 0.00 | 22 | 1014.4 |
| 20260830223035 | 78 | 37 | 3.0 | 8.0 | 0.00 | 0.00 | 0.00 | 23 | 1014.6 |
| 20260830221532 | 78 | 134 | 2.0 | 10.0 | 0.00 | 0.00 | 0.00 | 24 | 1014.8 |
| 20260830220030 | 76 | 134 | 3.0 | 9.0 | 0.00 | 0.00 | 0.00 | 25 | 1015.1 |
| 20260830214528 | 76 | 115 | 3.0 | 9.0 | 0.00 | 0.00 | 0.00 | 25 | 1015.5 |
| 20260830213026 | 76 | 143 | 3.0 | 10.0 | 0.00 | 0.00 | 0.00 | 25 | 1015.6 |
| 20260830211526 | 75 | 79 | 3.0 | 9.0 | 0.00 | 0.00 | 0.00 | 26 | 1015.8 |
| 20260830210021 | 75 | 79 | 4.0 | 8.0 | 0.00 | 0.00 | 0.00 | 27 | 1015.9 |
| 20260830204518 | 75 | 65 | 0.0 | 5.0 | 0.00 | 0.00 | 0.00 | 27 | 1016.1 |
| 20260830203018 | 75 | 94 | 0.0 | 2.0 | 0.00 | 0.00 | 0.00 | 27 | 1016.3 |
| 20260830201514 | 74 | 232 | 0.0 | 5.0 | 0.00 | 0.00 | 0.00 | 28 | 1016.6 |
| 20260830200011 | 73 | 256 | 1.0 | 6.0 | 0.00 | 0.00 | 0.00 | 29 | 1016.8 |
| 20260830194507 | 71 | 210 | 1.0 | 6.0 | 0.00 | 0.00 | 0.00 | 31 | 1016.9 |
| 20260830193005 | 71 | 171 | 1.0 | 6.0 | 0.00 | 0.00 | 0.00 | 33 | 1017.1 |
| 20260830191506 | 69 | 233 | 3.0 | 9.0 | 0.00 | 0.00 | 0.00 | 34 | 1017.2 |
| 20260830190059 | 69 | 243 | 1.0 | 8.0 | 0.00 | 0.00 | 0.00 | 37 | 1017.4 |
| 20260830184555 | 68 | 153 | 4.0 | 9.0 | 0.00 | 0.00 | 0.00 | 37 | 1017.7 |
| 20260830183111 | 67 | 315 | 4.0 | 8.0 | 0.00 | 0.00 | 0.00 | 38 | 1017.9 |
| 20260830181555 | 66 | 198 | 4.0 | 10.0 | 0.00 | 0.00 | 0.00 | 41 | 1018.1 |
| 20260830180105 | 65 | 151 | 2.0 | 9.0 | 0.00 | 0.00 | 0.00 | 42 | 1018.2 |
| 20260830174553 | 64 | 251 | 6.0 | 17.0 | 0.00 | 0.00 | 0.00 | 42 | 1018.3 |
| 20260830173106 | 63 | 233 | 7.0 | 13.0 | 0.00 | 0.00 | 0.00 | 46 | 1018.2 |
| 20260830171553 | 62 | 233 | 4.0 | 9.0 | 0.00 | 0.00 | 0.00 | 46 | 1018.3 |
| 20260830170038 | 61 | 253 | 7.0 | 10.0 | 0.00 | 0.00 | 0.00 | 50 | 1018.4 |
| 20260830164534 | 61 | 278 | 4.0 | 11.0 | 0.00 | 0.00 | 0.00 | 51 | 1018.6 |
| 20260830163032 | 60 | 286 | 5.0 | 11.0 | 0.00 | 0.00 | 0.00 | 52 | 1018.8 |
| 20260830161532 | 60 | 162 | 6.0 | 10.0 | 0.00 | 0.00 | 0.00 | 54 | 1018.8 |
| 20260830160032 | 59 | 172 | 4.0 | 10.0 | 0.00 | 0.00 | 0.00 | 56 | 1019.0 |
| 20260830154523 | 58 | 278 | 4.0 | 9.0 | 0.00 | 0.00 | 0.00 | 58 | 1019.1 |
| 20260830153018 | 57 | 243 | 5.0 | 8.0 | 0.00 | 0.00 | 0.00 | 60 | 1019.0 |
| 20260830151520 | 56 | 243 | 5.0 | 10.0 | 0.00 | 0.00 | 0.00 | 61 | 1019.1 |
| 20260830150014 | 54 | 240 | 6.0 | 10.0 | 0.00 | 0.00 | 0.00 | 63 | 1019.0 |
| 20260830144514 | 53 | 242 | 7.0 | 11.0 | 0.00 | 0.00 | 0.00 | 65 | 1019.1 |
| 20260830143011 | 52 | 244 | 6.0 | 11.0 | 0.00 | 0.00 | 0.00 | 68 | 1019.0 |
| 20260830141509 | 51 | 266 | 6.0 | 10.0 | 0.00 | 0.00 | 0.00 | 70 | 1018.9 |
| 20260830140004 | 0 | 0.0 | 0.0 | 0.00 | 0.00 | 0.00 | 1018.9 | ||
| 20260830134604 | 0 | 0.0 | 0.0 | 0.00 | 0.00 | 0.00 | 1018.7 |